When you browse on this site, cookies collect data to enhance your experience and personalize the content and advertising you see.
Visit our Privacy Policy to learn more. By continuing to use the site, you agree to this use of cookies and data.
  • In Romania
  • List of Countries
  • For 7 days
  • Water Temperature
  • Weather Map
  • Weather Widgets
  • user-avatar
    Login

    Hourly Weather Agra

    Today, 31 March, Tuesday

    Time Temperature Precipitation Wind Pressure Humidity
    00:00 +25°C° 0 mm 2 mps 743 mmHg 24%
    01:00 +25°C° 0 mm 2 mps 743 mmHg 25%
    02:00 +24°C° 0 mm 2 mps 742 mmHg 26%
    03:00 +24°C° 0 mm 2 mps 742 mmHg 28%
    04:00 +23°C° 0 mm 2 mps 742 mmHg 30%
    05:00 +23°C° 0 mm 1 mps 742 mmHg 33%
    06:00 +24°C° 0 mm 1 mps 743 mmHg 31%
    07:00 +26°C° 0 mm 1 mps 744 mmHg 28%
    08:00 +28°C° 0 mm 1 mps 744 mmHg 25%
    09:00 +30°C° 0 mm 2 mps 744 mmHg 22%
    10:00 +33°C° 0 mm 3 mps 744 mmHg 18%
    11:00 +35°C° 0 mm 3 mps 744 mmHg 17%
    12:00 +36°C° 0 mm 3 mps 743 mmHg 16%
    13:00 +37°C° 0 mm 3 mps 742 mmHg 15%
    14:00 +38°C° 0 mm 4 mps 741 mmHg 13%
    15:00 +38°C° 0 mm 4 mps 741 mmHg 14%
    16:00 +37°C° 0 mm 4 mps 741 mmHg 15%
    17:00 +37°C° 0 mm 4 mps 740 mmHg 15%
    18:00 +35°C° 0 mm 3 mps 741 mmHg 17%
    19:00 +33°C° 0 mm 3 mps 741 mmHg 18%
    20:00 +31°C° 0 mm 2 mps 742 mmHg 20%
    21:00 +30°C° 0 mm 3 mps 742 mmHg 24%
    22:00 +28°C° 0 mm 3 mps 741 mmHg 27%
    23:00 +27°C° 0 mm 3 mps 741 mmHg 31%

    Tomorrow, 1 April, Wednesday

    Time Temperature Precipitation Wind Pressure Humidity
    00:00 +27°C° 0 mm 3 mps 741 mmHg 33%
    01:00 +26°C° 0 mm 2 mps 741 mmHg 35%
    02:00 +25°C° 0 mm 2 mps 741 mmHg 37%
    03:00 +25°C° 0 mm 2 mps 741 mmHg 38%
    04:00 +24°C° 0 mm 1 mps 741 mmHg 40%
    05:00 +24°C° 0 mm 1 mps 741 mmHg 41%
    06:00 +25°C° 0 mm 1 mps 742 mmHg 38%
    07:00 +27°C° 0 mm 1 mps 742 mmHg 34%
    08:00 +29°C° 0 mm 2 mps 743 mmHg 31%
    09:00 +31°C° 0 mm 2 mps 743 mmHg 27%
    10:00 +35°C° 0 mm 2 mps 743 mmHg 22%
    11:00 +37°C° 0 mm 2 mps 743 mmHg 18%
    12:00 +38°C° 0 mm 2 mps 742 mmHg 16%
    13:00 +39°C° 0 mm 3 mps 741 mmHg 14%
    14:00 +39°C° 0 mm 3 mps 740 mmHg 12%
    15:00 +40°C° 0 mm 4 mps 740 mmHg 12%
    16:00 +38°C° 0 mm 4 mps 739 mmHg 12%
    17:00 +38°C° 0 mm 4 mps 739 mmHg 12%
    18:00 +36°C° 0 mm 3 mps 740 mmHg 14%
    19:00 +34°C° 0 mm 3 mps 740 mmHg 16%
    20:00 +31°C° 0 mm 2 mps 741 mmHg 17%
    21:00 +30°C° 0 mm 2 mps 741 mmHg 20%
    22:00 +29°C° 0 mm 3 mps 741 mmHg 22%
    23:00 +28°C° 0 mm 3 mps 741 mmHg 24%

    Day after tomorrow, 2 April, Thursday

    Time Temperature Precipitation Wind Pressure Humidity
    00:00 +27°C° 0 mm 3 mps 741 mmHg 27%
    01:00 +27°C° 0 mm 3 mps 741 mmHg 29%
    02:00 +26°C° 0 mm 3 mps 741 mmHg 31%
    03:00 +25°C° 0 mm 3 mps 741 mmHg 33%
    04:00 +25°C° 0 mm 3 mps 741 mmHg 34%
    05:00 +24°C° 0 mm 3 mps 741 mmHg 36%
    06:00 +26°C° 0 mm 3 mps 741 mmHg 33%
    07:00 +28°C° 0 mm 3 mps 742 mmHg 30%
    08:00 +29°C° 0 mm 3 mps 743 mmHg 27%
    09:00 +31°C° 0 mm 3 mps 743 mmHg 22%
    10:00 +34°C° 0 mm 4 mps 743 mmHg 17%
    11:00 +37°C° 0 mm 4 mps 743 mmHg 13%
    12:00 +37°C° 0 mm 5 mps 742 mmHg 12%
    13:00 +39°C° 0 mm 5 mps 742 mmHg 10%
    14:00 +40°C° 0 mm 5 mps 741 mmHg 9%
    15:00 +39°C° 0 mm 5 mps 741 mmHg 10%
    16:00 +39°C° 0 mm 5 mps 740 mmHg 10%
    17:00 +37°C° 0 mm 5 mps 740 mmHg 11%
    18:00 +35°C° 0 mm 4 mps 741 mmHg 13%
    19:00 +33°C° 0 mm 4 mps 741 mmHg 15%
    20:00 +30°C° 0 mm 4 mps 742 mmHg 18%
    21:00 +29°C° 0 mm 4 mps 742 mmHg 19%
    22:00 +29°C° 0 mm 3 mps 742 mmHg 20%
    23:00 +28°C° 0 mm 3 mps 742 mmHg 21%

    3 April, Friday

    Time Temperature Precipitation Wind Pressure Humidity
    00:00 +27°C° 0 mm 3 mps 742 mmHg 22%
    01:00 +26°C° 0 mm 2 mps 742 mmHg 22%
    02:00 +26°C° 0 mm 2 mps 742 mmHg 23%
    03:00 +25°C° 0 mm 2 mps 742 mmHg 25%
    04:00 +24°C° 0 mm 2 mps 742 mmHg 26%
    05:00 +23°C° 0 mm 2 mps 742 mmHg 27%
    06:00 +25°C° 0 mm 2 mps 742 mmHg 26%
    07:00 +27°C° 0 mm 1 mps 743 mmHg 24%
    08:00 +29°C° 0 mm 1 mps 744 mmHg 22%
    09:00 +31°C° 0 mm 2 mps 743 mmHg 18%
    10:00 +34°C° 0 mm 3 mps 743 mmHg 14%
    11:00 +36°C° 0 mm 3 mps 743 mmHg 10%
    12:00 +37°C° 0 mm 4 mps 743 mmHg 9%
    13:00 +38°C° 0 mm 4 mps 742 mmHg 7%
    14:00 +40°C° 0 mm 4 mps 742 mmHg 5%
    15:00 +40°C° 0 mm 4 mps 741 mmHg 5%
    16:00 +38°C° 0 mm 4 mps 741 mmHg 5%
    17:00 +38°C° 0 mm 4 mps 741 mmHg 6%
    18:00 +35°C° 0 mm 3 mps 741 mmHg 7%
    19:00 +33°C° 0 mm 3 mps 742 mmHg 9%
    20:00 +30°C° 0 mm 2 mps 742 mmHg 10%
    21:00 +29°C° 0 mm 2 mps 742 mmHg 12%
    22:00 +28°C° 0 mm 2 mps 743 mmHg 13%
    23:00 +27°C° 0 mm 2 mps 743 mmHg 15%

    4 April, Saturday

    Time Temperature Precipitation Wind Pressure Humidity
    00:00 +27°C° 0 mm 2 mps 742 mmHg 16%
    01:00 +26°C° 0 mm 2 mps 742 mmHg 17%
    02:00 +25°C° 0 mm 2 mps 742 mmHg 19%
    03:00 +25°C° 0 mm 2 mps 742 mmHg 20%
    04:00 +24°C° 0 mm 2 mps 742 mmHg 21%
    05:00 +24°C° 0 mm 2 mps 742 mmHg 22%
    06:00 +26°C° 0 mm 2 mps 742 mmHg 21%
    07:00 +28°C° 0 mm 2 mps 743 mmHg 19%
    08:00 +29°C° 0 mm 2 mps 744 mmHg 17%
    09:00 +32°C° 0 mm 2 mps 743 mmHg 15%
    10:00 +35°C° 0 mm 3 mps 743 mmHg 13%
    11:00 +38°C° 0 mm 4 mps 743 mmHg 10%
    12:00 +40°C° 0 mm 4 mps 743 mmHg 9%
    13:00 +41°C° 0 mm 5 mps 742 mmHg 8%
    14:00 +42°C° 0 mm 6 mps 741 mmHg 7%
    15:00 +41°C° 0 mm 6 mps 741 mmHg 7%
    16:00 +40°C° 0 mm 6 mps 741 mmHg 8%
    17:00 +40°C° 0 mm 5 mps 740 mmHg 8%
    18:00 +37°C° 0 mm 5 mps 741 mmHg 9%
    19:00 +34°C° 0 mm 4 mps 741 mmHg 11%
    20:00 +31°C° 0 mm 3 mps 742 mmHg 13%
    21:00 +30°C° 0 mm 3 mps 742 mmHg 14%
    22:00 +30°C° 0 mm 3 mps 742 mmHg 16%
    23:00 +29°C° 0 mm 3 mps 742 mmHg 17%

    5 April, Sunday

    Time Temperature Precipitation Wind Pressure Humidity
    00:00 +28°C° 0 mm 3 mps 742 mmHg 18%
    01:00 +28°C° 0 mm 3 mps 742 mmHg 19%
    02:00 +27°C° 0 mm 3 mps 741 mmHg 21%
    03:00 +26°C° 0 mm 2 mps 741 mmHg 21%
    04:00 +26°C° 0 mm 2 mps 741 mmHg 21%
    05:00 +26°C° 0 mm 2 mps 741 mmHg 21%
    06:00 +28°C° 0 mm 2 mps 742 mmHg 19%
    07:00 +30°C° 0 mm 2 mps 743 mmHg 17%
    08:00 +32°C° 0 mm 2 mps 743 mmHg 15%
    09:00 +35°C° 0 mm 3 mps 743 mmHg 13%
    10:00 +37°C° 0 mm 3 mps 743 mmHg 12%
    11:00 +40°C° 0 mm 3 mps 743 mmHg 10%
    12:00 +42°C° 0 mm 4 mps 742 mmHg 10%
    13:00 +42°C° 0 mm 5 mps 742 mmHg 9%
    14:00 +44°C° 0 mm 6 mps 741 mmHg 9%
    15:00 +44°C° 0 mm 6 mps 741 mmHg 9%
    16:00 +42°C° 0 mm 5 mps 741 mmHg 9%
    17:00 +41°C° 0 mm 5 mps 740 mmHg 10%
    18:00 +39°C° 0 mm 5 mps 741 mmHg 11%
    19:00 +36°C° 0 mm 4 mps 741 mmHg 13%
    20:00 +34°C° 0 mm 3 mps 742 mmHg 14%
    21:00 +33°C° 0 mm 3 mps 742 mmHg 16%
    22:00 +31°C° 0 mm 3 mps 742 mmHg 17%
    23:00 +30°C° 0 mm 3 mps 742 mmHg 18%
    Show more